Hourly Data Report for November 16, 2020

VANCOUVER INTL A
BRITISH COLUMBIA
Current Station Operator: NAVCAN

49°11'41.000" N
123°11'02.000" W
4.30 m
1108395
71892
YVR

Download Data

Hourly Data (November 2020)
Hourly Data Report for November 16, 2020
TIME
LST
Temp Definition
°C
Dew Point Definition
°C
Rel Hum Definition
%
Precip. Amount Definition
mm

Wind Dir Definition
10's deg

Wind Spd Definition
km/h
Visibility Definition
km
Stn Press Definition
kPa
Hmdx Definition


Wind Chill Definition


Weather Definition


00:00 7.4 5.4 87   7 10 24.1 102.02     Rain
01:00 6.8 5.7 92   9 14 24.1 102.02     Mostly Cloudy
02:00 6.9 5.7 92   6 13 24.1 102.00     LegendNANA
03:00 6.7 5.8 94   7 11 24.1 102.00     Rain
04:00 7.0 5.6 91   6 16 24.1 101.96     Mostly Cloudy
05:00 6.7 5.4 91   8 12 24.1 101.94     LegendNANA
06:00 6.7 5.2 91   8 12 24.1 101.93     LegendNANA
07:00 6.4 4.6 89   8 11 32.2 101.86     Cloudy
08:00 6.1 5.0 93   9 11 32.2 101.80     LegendNANA
09:00 6.7 4.8 88   8 9 32.2 101.74     LegendNANA
10:00 6.9 4.9 87   8 9 32.2 101.67     Cloudy
11:00 7.5 5.3 86   9 13 32.2 101.57     LegendNANA
12:00 7.1 4.8 85   6 20 32.2 101.44     Rain
13:00 7.1 5.3 89   6 16 6.4 101.28     Rain, Fog
14:00 7.1 5.6 90   5 12 6.4 101.12     Rain
15:00 6.8 5.9 94   36 4 9.7 100.95     Moderate Rain, Fog
16:00 6.5 5.6 94   9 10 6.4 100.85     Moderate Rain, Fog
17:00 6.2 5.6 96   32 8 17.7 100.65     Moderate Rain
18:00 6.1 5.6 96   18 9 32.2 100.53     Rain
19:00 6.2 5.8 97   10 14 19.3 100.43     Rain
20:00 6.2 5.6 96   8 14 12.9 100.39     Rain
21:00 6.4 5.8 96   10 5 16.1 100.30     Rain
22:00 6.6 5.9 96   11 12 24.1 100.23     Mostly Cloudy
23:00 6.3 5.7 96   9 10 24.1 100.10     LegendNANA

Notes on Data Quality.

Legend

  • E = Estimated
  • M = Missing
  • NA = Not Available*
  • [empty] = Indicates an unobserved value
Date modified: